DW0333 Tranby-Lier NO current weather conditions

sailwx.info

Wind from 013 at 3 knots

Air temperature 9.4° C
Dewpoint 6.3° C

Last reported at 2016-May-24 18:50 UTC.
Time now 2016-May-24 19:40 UTC

Location: N 59°50' E 010°17'.
View on Google Maps.

See reports from other nearby stations

  
Tides and Currents Weather Stations Pressure Air Temp Water Temp Dewpoint Dewpoint Depression Visibility Wind Speed Wind Dir Waves Ship Positions
date/time (UTC)wind fromknots sea level pressurealtimeterstation pressurevisibilityair tempwater tempwave heightnotes
2016-May-24 18:50 013 3 9.4
2016-May-24 18:37 323 2 10.0
2016-May-24 18:20 052 1 10.0
2016-May-24 18:07 337 2 10.0
2016-May-24 17:48 319 2 10.6
2016-May-24 17:33 330 2 10.6
2016-May-24 17:18 067 1 11.1
2016-May-24 17:03 290 2 11.1
2016-May-24 16:47 286 2 11.7
2016-May-24 16:34 020 2 11.7
2016-May-24 16:17 314 2 11.7
2016-May-24 16:02 317 1 11.1
2016-May-24 15:46 346 2 11.7
2016-May-24 15:31 356 2 11.7
2016-May-24 15:16 318 1 11.7
2016-May-24 15:01 313 1 11.1
2016-May-24 14:46 326 1 11.1
2016-May-24 14:31 331 2 11.1
2016-May-24 14:15 329 2 11.1
2016-May-24 14:02 009 2 11.1
2016-May-24 13:45 021 3 11.1
2016-May-24 13:31 350 3 11.1
2016-May-24 13:15 319 2 10.6
2016-May-24 13:03 288 2 11.1
2016-May-24 12:45 330 1 12.2
2016-May-24 12:28 333 2 12.2
2016-May-24 12:13 313 1 11.1
2016-May-24 11:58 043 1 10.6
2016-May-24 11:42 309 2 10.0
2016-May-24 11:27 294 3 10.0
2016-May-24 11:12 288 4 9.4
2016-May-24 10:57 352 3 9.4
2016-May-24 10:41 004 3 10.0
2016-May-24 10:26 048 2 10.0
2016-May-24 10:11 296 3 8.9
2016-May-24 09:55 318 3 7.8
2016-May-24 09:40 319 3 7.8
2016-May-24 09:25 342 3 7.2
2016-May-24 09:10 335 2 7.2
2016-May-24 08:55 340 2 7.2
2016-May-24 08:40 304 2 6.7
2016-May-24 08:26 349 2 6.7
2016-May-24 08:10 336 2 6.7
2016-May-24 07:55 356 3 6.7
2016-May-24 07:38 352 3 6.7
2016-May-24 07:25 344 2 6.7
2016-May-24 07:08 296 2 6.7
2016-May-24 06:53 356 3 6.7
2016-May-24 06:37 031 2 6.7
2016-May-24 06:22 317 3 6.7
2016-May-24 06:07 314 3 7.2
2016-May-24 05:51 319 3 7.2
2016-May-24 05:36 360 3 7.2
2016-May-24 05:21 323 3 7.2
2016-May-24 05:06 283 3 7.2
2016-May-24 04:50 023 3 7.2
2016-May-24 04:35 001 2 7.2
2016-May-24 04:21 333 1 7.2
2016-May-24 04:05 019 2 7.2
2016-May-24 03:50 321 2 7.2
2016-May-24 03:35 338 2 7.2
2016-May-24 03:20 344 2 7.8
2016-May-24 03:05 292 1 7.8
2016-May-24 02:48 282 1 7.8
2016-May-24 02:33 023 2 7.8
2016-May-24 02:18 002 2 7.8
2016-May-24 02:03 315 2 7.8
2016-May-24 01:47 352 2 7.8
2016-May-24 01:32 348 2 7.8
2016-May-24 01:17 352 2 8.3
2016-May-24 01:02 299 3 8.3
2016-May-24 00:46 310 2 8.3
2016-May-24 00:31 319 2 8.3
2016-May-24 00:16 310 3 8.3
2016-May-24 00:01 016 2 8.9
2016-May-23 23:45 340 2 8.9
2016-May-23 23:31 325 2 8.9
2016-May-23 23:15 008 4 9.4
2016-May-23 23:01 026 2 9.4
2016-May-23 22:45 294 2 10.0
2016-May-23 22:31 314 2 10.0
2016-May-23 22:15 313 2 10.0
2016-May-23 21:58 301 1 10.6
2016-May-23 21:45 335 1 10.6
2016-May-23 21:27 301 2 10.6
2016-May-23 21:13 318 2 10.6
2016-May-23 20:57 324 1 10.6
2016-May-23 20:42 327 1 10.6
2016-May-23 20:27 351 2 10.6
2016-May-23 20:12 340 1 11.1
2016-May-23 19:56 017 0 11.1
2016-May-23 19:41 025 2 11.1
2016-May-23 19:26 341 1 11.1
2016-May-23 19:10 303 0 11.7
2016-May-23 18:57 021 0 11.7
2016-May-23 18:40 345 0 11.7
2016-May-23 18:25 352 12.2
2016-May-23 18:12 349 12.2
2016-May-23 17:55 341 12.2
2016-May-23 17:40 334 12.2
2016-May-23 17:25 352 12.2
2016-May-23 17:10 311 0 12.2
2016-May-23 16:53 180 0 11.7
2016-May-23 16:38 136 11.7
2016-May-23 16:23 136 11.7
2016-May-23 16:08 136 11.7
2016-May-23 15:52 136 1 11.7
2016-May-23 15:37 165 1 11.7
2016-May-23 15:22 037 11.7
2016-May-23 15:07 037 11.7
2016-May-23 14:51 036 11.7
2016-May-23 14:36 345 0 11.7
2016-May-23 14:21 344 0 11.7
2016-May-23 14:06 333 0 11.7
2016-May-23 13:51 021 1 11.7
2016-May-23 13:35 033 0 11.7
2016-May-23 13:20 354 0 11.7
2016-May-23 13:06 002 0 11.7
2016-May-23 12:50 022 11.7
2016-May-23 12:35 350 0 11.7
2016-May-23 12:20 008 0 11.7
2016-May-23 12:05 070 1 11.7
2016-May-23 11:48 345 1 11.7
2016-May-23 11:33 349 0 11.7
2016-May-23 11:18 050 1 11.7
2016-May-23 11:03 017 0 11.7
2016-May-23 10:47 321 2 11.7
2016-May-23 10:32 314 1 11.7
2016-May-23 10:17 353 0 11.7
2016-May-23 10:03 294 1 12.2
2016-May-23 09:46 025 0 12.2
2016-May-23 09:31 071 12.8
2016-May-23 09:16 132 12.8
2016-May-23 09:01 132 12.2
2016-May-23 08:45 132 12.2
2016-May-23 08:31 131 12.2
2016-May-23 08:15 140 0 12.2
2016-May-23 08:01 105 0 12.2
2016-May-23 07:45 085 12.2
2016-May-23 07:31 082 12.2
2016-May-23 07:15 083 12.2
2016-May-23 06:58 082 12.2
2016-May-23 06:43 082 12.2
2016-May-23 06:28 082 12.2
2016-May-23 06:13 082 11.7
2016-May-23 05:57 082 11.7
2016-May-23 05:42 092 11.7
2016-May-23 05:27 091 0 11.7
2016-May-23 05:12 089 1 11.7
2016-May-23 04:57 125 0 11.7
2016-May-23 04:41 131 1 11.7
2016-May-23 04:26 102 2 11.7
2016-May-23 04:11 112 1 11.7
2016-May-23 03:56 078 0 11.7
2016-May-23 03:40 101 3 11.7
2016-May-23 03:25 117 3 12.2
2016-May-23 03:10 075 2 12.2
2016-May-23 02:55 103 3 12.2
2016-May-23 02:40 055 1 12.2
2016-May-23 02:25 109 1 12.2
2016-May-23 02:10 075 1 12.2
2016-May-23 01:55 084 1 12.2
2016-May-23 01:38 089 0 11.7
2016-May-23 01:23 116 0 11.7
2016-May-23 01:08 052 2 11.7
2016-May-23 00:52 058 2 11.7
2016-May-23 00:37 103 1 11.7
2016-May-23 00:22 065 1 11.7
2016-May-23 00:07 119 1 11.7
2016-May-22 23:51 075 2 11.7
2016-May-22 23:36 061 3 11.7
2016-May-22 23:21 048 2 11.7
2016-May-22 23:06 077 1 11.7
2016-May-22 22:51 049 1 11.7
2016-May-22 22:35 065 0 11.7
2016-May-22 22:20 071 1 11.7
2016-May-22 22:05 069 2 11.7
2016-May-22 21:50 053 1 11.7
2016-May-22 21:35 325 11.7
2016-May-22 21:20 319 1 11.7
2016-May-22 21:05 166 1 11.7
2016-May-22 20:50 057 2 11.7
2016-May-22 20:33 049 1 11.7
2016-May-22 20:18 046 1 11.7
2016-May-22 20:03 061 1 11.7
2016-May-22 19:47 090 1 11.7
2016-May-22 19:32 047 2 12.2
2016-May-22 19:17 040 2 12.2
2016-May-22 19:02 105 2 12.2